Regional Weather Roundup
Issued by NWS Charleston, WV

Home | Current Version | Previous Version | Text Only | Print | Product List | Glossary Off
Versions: 1 2 3 4 5 6 7 8 9 10 11 12 13 14 15 16 17 18 19 20 21 22 23 24 25 26 27 28

000
ASUS41 KRLX 182210
RWRRLX
West Virginia Regional Weather Roundup
National Weather Service Charleston WV
600 PM EDT FRI APR 18 2014

Note: "fair" indicates few or no clouds below 12,000 feet with no
significant weather and/or obstructions to visibility.

WVZ003-182300-
Northern Panhandle of West Virginia

CITY           SKY/WX    TMP DP  RH WIND       PRES   REMARKS
WHEELING       PTSUNNY   66  30  26 W8        30.20F
$$

WVZ009-182300-
Northwest West Virginia

CITY           SKY/WX    TMP DP  RH WIND       PRES   REMARKS
PARKERSBURG    PTSUNNY   70  30  22 CALM      30.22F
$$

WVZ006-182300-
Western West Virginia

CITY           SKY/WX    TMP DP  RH WIND       PRES   REMARKS
HUNTINGTON     PTSUNNY   71  33  24 W9        30.18F
$$

WVZ015-182300-
West Central West Virginia

CITY           SKY/WX    TMP DP  RH WIND       PRES   REMARKS
CHARLESTON     CLOUDY    71  37  28 SW3       30.18F
$$

WVZ031-182300-
North Central West Virginia

CITY           SKY/WX    TMP DP  RH WIND       PRES   REMARKS
CLARKSBURG     PTSUNNY   69  27  20 W8        30.18F
MORGANTOWN     PTSUNNY   71  25  17 W6        30.19F
$$

WVZ035-042-045-182300-
South Central West Virginia

CITY           SKY/WX    TMP DP  RH WIND       PRES   REMARKS
BECKLEY        CLOUDY    63  27  25 W5        30.22F
BLUEFIELD      CLOUDY    62  29  28 SE5       30.24F
LEWISBURG      CLOUDY    60  29  30 SW6       30.22F
$$

WVZ047-182300-
Northern Mountains of West Virginia

CITY           SKY/WX    TMP DP  RH WIND       PRES   REMARKS
ELKINS         CLOUDY    67  25  20 VRB6      30.20F
$$

WVZ052-182300-
Eastern Panhandle of West Virginia

CITY           SKY/WX    TMP DP  RH WIND       PRES   REMARKS
MARTINSBURG    PTSUNNY   55  34  45 SE7       30.28F
PETERSBURG     PTSUNNY   70  41  35 E8        30.22S
$$



USA.gov is the U.S. government's official web portal to all federal, state and local government web resources and services.